Temperature
17 17 17 17 17 16 16 16 16 15 15 15 15 14 14 14 14 14 14 13 13 14 14 13 13 13 14 13 13 13 13 13 13 13 13 12 12 12 12 11 11 11 10
18 17 17 17 17 16 16 16 15 15 15 15 15 15 14 14 14 14 14 14 13 13 13 13 13 13 13 13 13 13 13 13 13 13 13 13 12 12 12 11 11 11 10
18 17 17 17 17 15 15 14 14 14 14 14 14 14 14 14 14 14 14 13 13 13 13 13 13 12 12 12 12 11 11 12 12 12 12 12 12 12 11 11 10 10 10
16 16 15 15 15 14 14 13 13 13 13 13 13 13 13 13 13 13 13 13 13 13 13 13 12 12 12 11 11 11 10 10 10 11 11 11 11 11 10 10 9 9 10
15 15 14 14 14 14 14 13 13 13 13 13 12 12 12 12 12 12 12 12 12 12 12 12 12 12 12 12 11 11 10 10 10 10 10 10 10 10 9 9 9 9 9
16 15 15 15 14 14 13 13 12 12 12 12 11 11 11 12 12 12 12 12 12 12 12 12 12 12 11 11 11 10 10 10 10 10 10 10 10 9 9 9 9 9 9
15 14 14 14 13 13 13 13 12 12 12 11 11 11 11 11 11 12 12 12 12 12 12 12 12 12 11 11 11 11 10 10 10 10 10 9 9 9 9 9 9 9 9
14 14 13 13 13 13 13 13 12 12 12 12 11 10 10 11 12 12 12 12 12 13 13 13 12 12 12 11 11 11 11 10 10 9 9 9 9 9 9 9 9 9 9
13 13 13 13 13 13 13 13 13 12 12 12 12 11 10 10 12 12 12 12 12 11 12 12 12 12 12 12 12 12 11 11 10 9 9 9 9 9 9 9 9 9 9
13 13 13 13 13 13 13 13 13 13 13 12 12 11 11 11 10 11 12 12 12 11 11 11 11 11 11 11 11 11 11 11 11 11 10 9 9 9 9 9 10 9 10
12 12 12 12 12 12 12 12 12 12 12 12 12 11 11 11 10 10 10 11 12 12 12 11 11 11 11 10 10 11 11 11 11 11 10 9 9 9 10 10 10 10 10
12 12 12 12 12 12 11 11 12 11 11 11 11 11 11 11 11 10 10 11 11 12 12 12 12 12 11 10 10 10 10 10 10 10 10 9 9 9 10 10 10 10 10
11 11 11 11 11 11 11 11 11 11 11 11 11 11 11 11 11 10 10 11 11 11 11 12 12 12 12 12 11 11 10 10 10 10 10 9 9 9 10 10 9 10 9
10 10 10 10 11 11 11 11 11 10 10 10 10 10 10 10 10 10 10 10 10 10 11 11 12 12 12 12 12 12 11 10 10 10 11 10 9 9 9 10 10 10 9
9 9 9 9 9 9 9 9 9 9 9 9 9 9 9 9 10 10 9 9 9 9 10 11 11 11 12 12 12 12 12 11 10 10 11 11 10 10 10 10 9 9 9
8 8 8 8 8 8 8 7 8 8 8 8 8 8 8 9 9 9 9 9 8 8 9 9 10 10 10 11 12 12 11 11 10 10 10 11 11 10 10 10 9 9 9
7 7 7 7 6 6 6 6 6 6 6 6 6 6 7 7 7 7 8 8 7 7 7 8 9 9 10 10 10 11 11 11 11 10 10 10 10 10 9 9 9 9 9
6 6 6 6 5 5 5 4 4 4 4 4 5 5 5 5 6 6 6 6 6 6 6 7 7 8 8 9 9 9 10 10 10 10 10 10 10 10 9 9 8 8 8
5 5 5 5 5 4 4 3 3 3 3 4 4 4 4 4 5 5 5 5 5 5 6 6 6 7 7 8 8 8 8 9 9 9 10 10 10 9 9 8 8 8 7
4 4 4 3 3 3 3 2 2 2 2 3 3 3 3 3 4 3 3 3 3 4 4 5 6 6 7 7 7 7 8 8 8 9 9 9 9 9 9 8 8 7 7
3 3 3 2 2 1 1 1 2 1 2 2 2 2 3 3 3 2 2 2 2 2 3 4 5 5 6 7 7 7 7 7 7 8 8 8 8 8 8 7 6 6 5
2 2 2 1 1 1 1 1 1 1 1 1 1 1 2 2 1 1 2 1 1 1 1 2 3 4 5 5 6 6 6 7 7 7 7 7 7 6 6 6 5 4 4
0 0 0 0 -0 -0 -0 -1 -1 -1 -1 -1 -1 0 0 -0 0 1 1 1 1 -0 -0 0 1 2 3 4 5 5 5 6 6 7 7 6 6 5 5 4 4 3 2
-1 -1 -1 -1 -2 -1 -1 -2 -2 -2 -2 -2 -2 -1 -1 -2 -2 -2 -2 -1 -1 -1 -1 -0 0 1 2 2 3 4 4 5 6 6 6 5 5 4 4 3 2 1 1
-2 -3 -3 -3 -3 -3 -3 -3 -3 -3 -3 -3 -3 -3 -3 -3 -3 -3 -3 -3 -2 -1 -1 0 0 1 1 2 3 4 4 4 5 5 4 4 4 3 2 2 1 0 -0
-3 -4 -4 -4 -4 -4 -4 -5 -5 -5 -5 -5 -5 -4 -4 -4 -4 -4 -4 -3 -3 -2 -1 -1 0 1 2 2 3 3 4 4 4 4 4 3 2 1 0 0 -0 -1 -2
Wind_Speed
8 5 6 9 10 11 8 6 6 7 8 8 10 10 9 11 14 15 16 21 25 29 29 27 27 27 27 27 27 26 26 26 25 25 25 24 23 23 22 22 21 21 20
8 9 9 9 9 10 9 8 9 9 9 9 11 11 10 11 13 16 17 20 24 29 31 31 30 30 29 29 29 29 29 28 28 27 27 27 26 25 25 24 24 23 23
12 10 9 10 8 8 9 7 7 6 7 8 11 11 11 10 11 13 16 18 18 24 31 33 32 31 31 31 32 32 31 30 30 29 29 29 28 28 27 27 26 25 25
13 7 8 7 5 6 5 7 8 7 9 9 10 10 10 10 13 12 14 15 16 18 24 32 34 34 34 34 34 34 33 32 30 30 31 30 30 30 29 28 28 27 27
12 7 8 8 7 7 8 10 9 8 10 11 10 10 9 11 12 13 14 14 16 18 19 24 30 33 34 36 36 36 35 33 30 30 31 32 32 32 32 31 30 30 29
11 9 10 10 8 8 9 8 10 10 10 8 10 13 10 12 12 14 15 14 13 16 18 19 20 22 30 35 37 38 36 35 31 30 31 32 33 34 33 33 32 31 30
10 9 10 10 9 11 13 12 11 11 12 7 6 10 12 14 17 15 11 13 16 14 13 16 16 17 17 25 32 36 37 37 35 34 32 32 32 34 35 35 33 32 32
8 10 12 12 11 11 13 12 11 11 11 8 7 7 7 7 10 12 13 16 17 13 15 16 14 13 12 13 18 28 33 36 37 36 35 34 34 34 35 35 34 33 32
8 11 13 13 11 11 12 14 12 15 15 11 12 12 9 9 5 5 8 11 13 13 14 13 16 17 14 14 14 20 27 32 35 35 35 34 34 34 34 34 34 34 32
8 9 11 12 12 11 13 14 14 14 15 14 11 13 15 8 9 7 6 7 10 13 14 12 14 16 16 13 15 21 25 29 33 33 34 33 33 33 33 33 33 33 31
7 7 8 8 9 10 12 13 14 14 13 15 13 11 13 14 16 14 16 13 9 11 12 13 13 13 14 15 14 18 26 31 33 32 32 32 33 33 33 33 32 31 30
6 10 10 9 8 8 9 11 12 13 14 15 14 13 12 10 10 14 17 17 16 12 10 12 14 13 12 13 17 22 26 31 34 34 33 33 33 34 34 34 33 31 29
5 10 9 10 9 9 9 10 10 12 12 14 15 14 13 14 13 15 17 18 17 12 10 11 14 13 13 13 15 22 24 30 33 36 36 35 33 30 30 33 32 30 29
6 9 10 11 11 11 11 10 9 10 10 11 13 14 12 12 12 14 16 18 20 16 11 13 10 14 14 13 17 22 19 26 31 35 36 35 30 27 26 28 31 29 28
9 12 12 12 13 12 12 12 10 11 11 10 11 12 10 10 10 10 11 13 17 21 19 11 10 12 13 13 18 16 17 22 28 32 33 31 29 28 26 27 28 27 25
11 12 13 14 14 13 13 13 12 12 13 13 11 13 13 11 10 9 10 11 12 17 21 14 11 11 12 12 18 18 19 24 27 31 32 30 29 29 28 27 27 25 23
11 11 12 13 13 13 13 13 14 15 14 14 12 13 15 14 11 10 9 9 10 12 19 18 10 11 12 15 15 16 17 18 17 27 31 30 29 28 27 25 24 24 25
12 12 12 12 13 13 13 13 15 14 13 14 15 15 15 13 14 12 11 11 12 11 15 21 16 10 12 13 15 15 15 15 15 21 27 28 28 28 26 25 26 26 26
14 14 15 16 16 15 14 14 13 12 13 15 15 14 13 12 14 13 14 14 13 14 13 17 18 13 10 10 12 11 12 13 13 16 21 23 26 27 28 29 29 28 27
15 15 16 17 17 17 17 14 14 16 14 14 12 11 11 12 14 15 14 14 15 17 16 15 16 14 12 10 7 10 12 12 14 12 17 18 22 27 30 31 30 27 26
15 15 16 17 16 16 15 20 21 20 17 13 11 11 11 14 16 14 16 17 18 17 17 16 16 15 13 9 8 8 14 13 13 11 10 12 13 15 19 25 24 23 23
15 16 16 17 18 18 26 31 27 20 14 13 14 14 14 13 14 24 27 25 24 21 19 18 17 18 18 14 11 11 13 14 12 9 11 12 10 11 9 10 21 24 23
15 16 16 17 18 20 29 31 29 17 14 14 15 16 17 16 20 18 23 26 24 27 24 19 21 21 21 19 17 17 15 16 16 7 10 10 8 10 6 11 21 23 23
14 15 16 16 16 21 29 29 27 16 13 12 13 16 15 13 16 21 20 21 22 21 21 18 18 21 21 20 20 20 19 16 6 2 9 8 7 7 6 8 19 21 20
14 14 15 16 17 19 26 28 31 15 14 14 15 15 17 14 24 29 22 22 25 23 22 22 25 27 30 30 25 17 14 10 7 4 3 5 4 4 4 6 11 20 21
14 15 16 15 16 16 24 30 30 14 14 14 13 14 21 24 29 32 22 21 24 23 22 22 21 22 20 19 21 15 13 11 5 6 6 6 5 5 4 3 4 6 10
Wind_Direction
228 225 225 224 224 223 222 225 233 235 238 239 238 236 240 238 238 240 243 244 238 236 238 238 236 234 233 233 234 235 236 236 236 237 237 237 238 238 238 239 241 244 248
222 224 226 226 228 225 226 228 232 234 236 239 242 237 238 238 239 240 241 246 241 237 238 241 242 242 241 241 240 239 239 240 241 241 241 241 241 241 241 240 241 243 246
224 225 229 232 231 228 233 238 242 244 244 243 247 246 243 241 240 240 241 241 241 240 239 243 246 247 248 248 248 247 245 243 243 244 244 244 243 243 244 244 244 245 247
226 224 239 248 240 228 225 233 235 239 242 242 247 249 250 249 249 249 248 245 241 242 243 245 247 249 251 251 251 251 251 249 246 245 246 247 247 246 245 246 246 246 247
223 216 233 236 219 222 229 236 236 231 246 248 250 253 250 251 252 251 248 245 243 243 243 246 246 246 247 249 252 254 255 254 251 248 247 247 247 248 247 246 246 247 247
220 218 235 237 223 230 239 235 242 240 246 250 256 259 252 250 252 252 251 250 248 244 244 246 247 248 247 248 252 255 256 257 256 254 251 249 248 248 248 247 246 246 246
224 224 238 242 232 238 243 237 239 244 250 236 246 264 260 254 255 256 251 253 254 250 245 245 245 246 249 247 247 250 253 256 257 258 256 253 251 250 249 247 245 244 244
232 235 239 245 240 241 246 244 235 245 254 226 231 251 271 271 255 249 246 248 251 250 250 247 244 244 243 243 244 243 246 250 255 258 258 256 253 251 249 247 244 242 242
248 248 249 250 247 240 247 247 238 241 253 248 232 240 252 259 275 262 239 241 242 245 249 247 247 247 244 243 244 243 241 245 252 257 257 255 254 250 247 245 242 241 240
277 270 266 262 258 252 249 250 245 242 245 255 248 236 239 242 246 271 253 234 234 240 243 243 246 247 244 242 240 239 240 242 249 253 254 254 252 249 245 242 240 240 240
335 331 317 297 279 269 263 261 259 253 248 250 253 248 246 246 245 254 269 268 250 240 239 238 244 247 242 239 241 241 241 244 250 252 253 252 250 249 246 243 241 240 239
346 355 350 346 331 312 294 284 277 271 266 262 260 256 250 245 244 249 259 266 269 265 239 237 243 246 240 235 236 238 240 245 251 252 252 251 250 249 247 245 243 241 236
342 346 348 345 343 337 327 316 304 293 284 280 278 275 269 263 260 260 265 272 272 267 251 250 248 246 244 238 239 236 241 245 250 252 252 251 250 249 247 247 245 240 233
332 337 340 338 335 333 331 328 319 308 302 294 292 289 288 282 275 271 272 278 282 279 257 248 248 245 245 241 241 234 241 242 247 250 251 251 250 248 243 243 242 235 228
344 342 337 334 330 328 327 326 320 315 310 302 297 292 290 287 282 277 274 272 278 285 282 261 250 243 241 239 240 239 238 240 242 246 247 245 244 244 239 237 235 227 215
340 337 334 331 327 325 324 322 319 315 312 309 305 302 300 296 291 286 282 280 277 280 286 282 266 255 245 241 240 238 239 237 237 242 245 241 238 237 234 230 226 214 204
333 331 329 328 326 322 321 319 317 316 314 313 314 310 307 305 302 298 294 290 286 286 289 291 280 266 252 245 245 241 240 240 239 238 242 239 234 233 229 220 209 202 202
339 335 333 331 328 324 319 316 313 315 318 317 313 308 307 311 308 306 303 299 296 289 289 293 291 280 263 253 248 244 242 243 242 239 238 237 232 228 223 212 202 198 200
340 339 338 334 330 327 323 315 309 315 315 311 309 307 309 313 311 309 308 305 301 297 290 289 291 288 278 265 253 249 248 247 245 245 241 237 233 227 219 209 202 199 199
338 337 334 331 327 326 322 320 326 319 313 309 306 303 305 309 311 312 311 306 307 305 300 294 290 289 284 275 250 255 257 246 246 240 238 237 234 226 218 210 203 198 197
334 330 330 328 327 326 321 326 325 320 314 310 308 303 302 302 300 313 319 316 315 311 307 301 296 293 287 279 263 253 260 257 242 227 231 233 229 224 215 209 197 191 192
331 330 328 326 325 324 321 322 324 319 317 319 322 321 315 307 321 326 320 317 314 309 308 305 301 297 295 289 287 281 272 265 257 209 214 230 216 216 202 190 188 185 186
327 326 323 323 320 319 320 322 324 332 327 322 322 322 319 320 331 322 317 318 314 308 302 300 297 296 298 299 299 296 290 277 261 204 196 222 202 210 185 187 182 180 184
323 320 319 318 317 318 321 325 331 330 318 313 316 315 310 315 320 321 318 316 311 306 298 292 286 286 288 289 288 287 286 285 266 181 183 206 185 190 167 170 181 182 192
318 315 316 316 316 317 322 328 329 323 320 317 316 313 311 309 314 319 318 312 308 304 299 287 281 280 278 278 278 279 274 263 244 208 180 172 147 134 142 162 181 190 200
313 314 314 313 311 313 319 326 325 318 316 314 311 308 310 314 316 316 312 307 305 306 310 309 300 289 282 279 280 273 269 260 229 201 180 154 142 134 123 116 151 182 203
Height
1497 1497 1496 1495 1494 1493 1492 1492 1490 1489 1488 1487 1486 1485 1485 1484 1484 1483 1483 1483 1482 1482 1481 1481 1481 1480 1479 1479 1479 1479 1478 1478 1478 1477 1477 1477 1476 1475 1474 1474 1474 1473 1473
1495 1494 1493 1492 1491 1490 1490 1489 1487 1486 1484 1483 1482 1481 1480 1480 1479 1478 1477 1477 1476 1475 1474 1473 1473 1473 1473 1473 1472 1472 1472 1472 1472 1472 1471 1471 1470 1470 1469 1468 1467 1467 1467
1491 1490 1489 1488 1487 1488 1487 1486 1484 1482 1480 1479 1477 1476 1475 1474 1472 1471 1470 1469 1469 1468 1467 1466 1465 1466 1466 1466 1465 1465 1464 1464 1464 1464 1464 1464 1464 1463 1462 1462 1461 1461 1460
1488 1488 1487 1486 1485 1484 1483 1481 1479 1477 1475 1473 1471 1470 1469 1468 1466 1465 1464 1462 1461 1460 1459 1458 1458 1457 1457 1457 1457 1457 1458 1457 1457 1456 1456 1456 1456 1456 1455 1455 1455 1454 1453
1485 1485 1483 1482 1481 1479 1477 1475 1473 1471 1469 1467 1466 1464 1463 1461 1459 1457 1455 1453 1452 1451 1450 1449 1449 1448 1448 1448 1448 1449 1449 1449 1449 1448 1447 1447 1447 1447 1447 1446 1446 1447 1446
1481 1479 1478 1476 1475 1473 1471 1469 1467 1466 1463 1461 1460 1457 1454 1453 1451 1448 1445 1445 1443 1441 1440 1439 1438 1438 1437 1437 1438 1438 1438 1439 1439 1438 1437 1437 1437 1437 1438 1437 1437 1437 1438
1476 1474 1472 1470 1468 1466 1463 1461 1460 1458 1456 1455 1453 1448 1445 1444 1441 1437 1437 1436 1434 1432 1431 1429 1428 1427 1426 1425 1426 1426 1426 1427 1427 1427 1426 1426 1426 1426 1427 1427 1427 1427 1428
1471 1469 1466 1464 1462 1459 1456 1454 1453 1450 1448 1449 1446 1442 1437 1434 1430 1430 1428 1426 1424 1423 1422 1420 1418 1417 1415 1415 1414 1413 1414 1414 1414 1414 1413 1413 1413 1414 1414 1416 1417 1418 1419
1465 1463 1460 1458 1455 1453 1450 1449 1447 1444 1441 1440 1438 1436 1432 1425 1423 1420 1419 1418 1416 1415 1413 1412 1410 1408 1407 1406 1404 1403 1402 1402 1402 1401 1401 1401 1401 1401 1402 1404 1406 1408 1409
1460 1457 1455 1452 1449 1446 1444 1442 1440 1437 1434 1431 1429 1426 1423 1419 1417 1411 1409 1408 1406 1404 1403 1402 1401 1398 1397 1396 1395 1393 1392 1391 1391 1390 1389 1389 1390 1390 1391 1393 1395 1398 1400
1457 1454 1451 1448 1444 1441 1438 1436 1434 1431 1428 1424 1421 1418 1414 1411 1408 1405 1399 1396 1395 1392 1391 1391 1389 1387 1385 1383 1382 1381 1381 1381 1380 1380 1380 1380 1380 1381 1382 1383 1385 1387 1390
1455 1451 1448 1444 1441 1437 1434 1431 1428 1425 1422 1418 1414 1411 1407 1403 1399 1397 1391 1386 1384 1382 1381 1379 1376 1374 1373 1371 1369 1368 1368 1369 1369 1369 1369 1370 1371 1371 1372 1373 1375 1377 1379
1452 1448 1445 1441 1437 1434 1430 1427 1423 1419 1416 1412 1408 1405 1401 1397 1393 1390 1384 1378 1374 1371 1370 1367 1365 1363 1362 1360 1359 1358 1357 1357 1357 1358 1358 1359 1360 1361 1361 1363 1364 1366 1369
1449 1445 1441 1437 1433 1430 1426 1422 1417 1414 1410 1405 1401 1397 1393 1389 1386 1383 1379 1373 1365 1359 1357 1354 1354 1353 1351 1350 1348 1347 1345 1345 1345 1345 1346 1347 1348 1350 1351 1352 1354 1356 1358
1446 1442 1437 1433 1428 1424 1420 1415 1410 1406 1402 1398 1394 1389 1385 1381 1377 1374 1370 1367 1362 1352 1343 1343 1342 1341 1341 1339 1337 1336 1334 1332 1333 1333 1334 1334 1336 1338 1340 1341 1343 1345 1348
1442 1437 1432 1427 1423 1418 1413 1408 1403 1399 1395 1390 1386 1381 1376 1372 1368 1365 1361 1358 1354 1348 1336 1331 1331 1330 1329 1327 1325 1324 1322 1321 1321 1321 1321 1322 1323 1325 1328 1330 1332 1334 1336
1436 1431 1426 1421 1417 1412 1408 1403 1398 1393 1388 1383 1379 1374 1369 1365 1360 1357 1353 1349 1344 1340 1331 1321 1320 1318 1317 1314 1312 1311 1309 1308 1307 1307 1308 1309 1310 1312 1314 1317 1320 1322 1324
1430 1426 1420 1415 1410 1405 1401 1397 1392 1387 1382 1377 1372 1367 1362 1358 1353 1349 1344 1339 1335 1331 1325 1315 1307 1306 1304 1303 1300 1298 1295 1295 1293 1293 1294 1295 1296 1298 1300 1303 1306 1308 1311
1425 1420 1415 1409 1404 1399 1394 1391 1387 1382 1376 1371 1366 1361 1356 1352 1346 1341 1336 1331 1326 1321 1316 1309 1299 1295 1293 1292 1289 1285 1283 1281 1279 1279 1279 1281 1282 1284 1286 1288 1291 1295 1297
1420 1414 1409 1404 1399 1393 1389 1385 1380 1374 1369 1364 1360 1355 1350 1346 1340 1335 1328 1323 1318 1312 1306 1300 1293 1287 1283 1280 1278 1274 1271 1268 1265 1264 1264 1267 1269 1270 1272 1274 1277 1280 1284
1416 1410 1404 1398 1394 1389 1384 1380 1374 1367 1362 1357 1352 1348 1343 1338 1333 1329 1324 1316 1310 1304 1299 1293 1286 1280 1275 1271 1268 1265 1261 1256 1253 1252 1252 1252 1255 1256 1258 1260 1263 1267 1272
1413 1407 1401 1395 1389 1384 1379 1375 1370 1362 1356 1351 1345 1339 1335 1330 1325 1320 1314 1309 1304 1299 1293 1287 1279 1273 1268 1265 1261 1257 1252 1247 1242 1240 1240 1238 1241 1243 1245 1248 1250 1255 1261
1409 1403 1398 1391 1385 1379 1374 1369 1364 1357 1351 1345 1339 1333 1328 1323 1317 1311 1303 1297 1292 1289 1286 1281 1272 1266 1261 1257 1253 1248 1243 1239 1232 1228 1228 1226 1229 1232 1236 1238 1241 1246 1253
1405 1399 1393 1387 1380 1374 1369 1364 1358 1351 1344 1339 1333 1328 1322 1316 1310 1305 1297 1288 1281 1276 1274 1269 1264 1257 1252 1247 1244 1239 1233 1227 1223 1218 1217 1218 1219 1222 1226 1229 1234 1240 1246
1400 1394 1388 1382 1375 1369 1365 1359 1352 1344 1337 1331 1326 1320 1315 1309 1303 1299 1292 1283 1273 1266 1262 1257 1251 1245 1240 1235 1232 1227 1221 1217 1211 1208 1208 1209 1210 1213 1217 1220 1226 1233 1239
1395 1389 1382 1376 1371 1365 1360 1354 1348 1340 1332 1326 1319 1314 1308 1302 1296 1291 1285 1278 1269 1260 1252 1243 1237 1232 1227 1222 1218 1215 1210 1206 1201 1198 1198 1200 1201 1205 1209 1213 1220 1226 1232